K1PM-WX Weather Reports


time (UTC)temp
F
wind
direction
speed
knots
gust
knots
rain 1hr
in
rain 24hr
in
rain mn
in
humidity
%
barometer
mb
20260505041356 62 180 5.2 10.4 0.00 0.00 0.00 76 1025.0
20260505040856 63 203 7.0 13.9 0.00 0.00 0.00 74 1025.0
20260505040356 64 203 10.4 16.5 0.01 0.00 0.00 71 1025.0
20260505035856 64 203 9.6 12.2 0.01 0.00 0.01 68 1025.0
20260505035356 64 203 9.6 9.6 0.01 0.00 0.01 68 1025.0
20260505034857 64 203 5.2 9.6 0.01 0.00 0.01 68 1025.0
20260505034356 64 225 5.2 7.8 0.01 0.00 0.01 68 1025.0
20260505033857 64 203 3.5 7.8 0.01 0.00 0.01 68 1025.0
20260505033356 64 180 7.8 7.8 0.01 0.00 0.01 68 1025.0
20260505032857 64 203 2.6 6.1 0.01 0.00 0.01 67 1025.0
20260505032356 64 180 2.6 7.0 0.01 0.00 0.01 67 1025.0
20260505031856 64 225 7.8 9.6 0.01 0.00 0.01 67 1025.0
20260505031357 64 203 7.0 11.3 0.01 0.00 0.01 68 1025.0
20260505030856 64 203 12.2 12.2 0.00 0.00 0.00 69 1025.0
20260505030359 62 180 5.2 5.2 0.00 0.00 0.00 70 1025.0
20260505025900 62 225 4.3 7.8 0.00 0.00 0.00 70 1025.0
20260505025358 61 180 1.7 3.5 0.00 0.00 0.00 69 1026.0
20260505024857 61 225 3.5 4.3 0.00 0.00 0.00 69 1026.0
20260505024358 61 203 2.6 4.3 0.00 0.00 0.00 69 1025.0
20260505023858 61 203 2.6 4.3 0.00 0.00 0.00 68 1026.0
20260505023358 61 203 2.6 3.5 0.00 0.00 0.00 68 1026.0
20260505022858 61 225 4.3 5.2 0.00 0.00 0.00 68 1026.0
20260505022358 61 225 6.1 6.1 0.00 0.00 0.00 68 1026.0
20260505021858 61 225 4.3 6.1 0.00 0.00 0.00 66 1026.0
20260505021358 62 225 5.2 9.6 0.00 0.00 0.00 64 1026.0
20260505020856 62 203 8.7 15.6 0.00 0.00 0.00 61 1026.0
20260505020357 60 180 1.7 2.6 0.00 0.00 0.00 57 1026.0
20260505015857 60 225 1.7 2.6 0.00 0.00 0.00 57 1025.0
20260505015356 59 113 1.7 2.6 0.00 0.00 0.00 57 1025.0
20260505014856 60 113 1.7 2.6 0.00 0.00 0.00 57 1025.0
20260505014356 60 113 1.7 1.7 0.00 0.00 0.00 56 1025.0
20260505013856 60 225 0.9 1.7 0.00 0.00 0.00 56 1025.0
20260505013356 60 203 0.9 1.7 0.00 0.00 0.00 56 1025.0
20260505012857 60 248 0.9 1.7 0.00 0.00 0.00 55 1025.0
20260505012356 60 203 0.9 1.7 0.00 0.00 0.00 55 1026.0
20260505011856 60 203 1.7 2.6 0.00 0.00 0.00 55 1026.0
20260505011356 60 203 1.7 2.6 0.00 0.00 0.00 55 1026.0
20260505010857 60 203 1.7 3.5 0.00 0.00 0.00 55 1026.0
20260505010356 60 158 3.5 4.3 0.00 0.00 0.00 55 1026.0
20260505005858 61 180 3.5 4.3 0.00 0.00 0.00 54 1026.0
20260505005358 61 180 1.7 4.3 0.00 0.00 0.00 54 1026.0
20260505004857 61 180 1.7 3.5 0.00 0.00 0.00 54 1026.0
20260505004358 61 225 1.7 5.2 0.00 0.00 0.00 53 1026.0
20260505003856 61 203 3.5 5.2 0.00 0.00 0.00 53 1026.0
20260505003358 61 203 5.2 5.2 0.00 0.00 0.00 53 1026.0
20260505002856 62 203 3.5 5.2 0.00 0.00 0.00 52 1026.0
20260505002356 62 180 2.6 5.2 0.00 0.00 0.00 51 1026.0
20260505001856 62 203 3.5 5.2 0.00 0.00 0.00 51 1026.0
20260505001357 63 203 3.5 4.3 0.00 0.00 0.00 50 1026.0
20260505000856 64 203 2.6 5.2 0.00 0.00 0.00 49 1026.0
20260505000358 65 203 2.6 5.2 0.00 0.00 0.00 49 1026.0
20260504235856 65 203 3.5 4.3 0.00 0.00 0.00 48 1026.0
20260504235356 66 180 6.1 6.1 0.00 0.00 0.00 47 1026.0
20260504234856 67 180 2.6 5.2 0.00 0.00 0.00 46 1026.0
20260504234357 66 203 7.0 7.0 0.00 0.00 0.00 46 1026.0
20260504233857 67 203 2.6 3.5 0.00 0.00 0.00 46 1026.0
20260504233356 67 203 5.2 5.2 0.00 0.00 0.00 46 1026.0
20260504232856 67 225 7.0 7.0 0.00 0.00 0.00 45 1026.0
20260504232356 68 180 5.2 7.0 0.00 0.00 0.00 45 1026.0
20260504231856 69 225 3.5 4.3 0.00 0.00 0.00 45 1026.0
20260504231356 69 225 4.3 7.0 0.00 0.00 0.00 45 1026.0
20260504230857 69 225 5.2 7.0 0.00 0.00 0.00 45 1026.0
20260504230356 69 225 6.1 9.6 0.00 0.00 0.00 45 1026.0
20260504225857 69 225 6.1 8.7 0.00 0.00 0.00 45 1026.0
20260504225357 69 270 8.7 8.7 0.00 0.00 0.00 45 1026.0
20260504224857 69 270 9.6 12.2 0.00 0.00 0.00 44 1026.0
20260504224356 69 248 8.7 12.2 0.00 0.00 0.00 44 1026.0
20260504223856 69 270 7.0 9.6 0.00 0.00 0.00 44 1026.0
20260504223357 69 270 3.5 9.6 0.00 0.00 0.00 43 1026.0
20260504222857 69 270 4.3 8.7 0.00 0.00 0.00 43 1026.0
20260504222358 69 270 6.1 10.4 0.00 0.00 0.00 42 1026.0
20260504221856 70 270 7.8 10.4 0.00 0.00 0.00 42 1026.0
20260504221357 70 248 7.8 10.4 0.00 0.00 0.00 40 1026.0
20260504220857 71 225 8.7 8.7 0.00 0.00 0.00 39 1026.0
20260504220357 72 248 7.0 13.0 0.00 0.00 0.00 38 1026.0
20260504215856 72 270 7.0 11.3 0.00 0.00 0.00 38 1026.0
20260504215356 71 203 7.8 8.7 0.00 0.00 0.00 38 1026.0
20260504214858 72 203 8.7 13.0 0.00 0.00 0.00 38 1026.0
20260504214356 72 248 6.1 13.9 0.00 0.00 0.00 38 1026.0
20260504213856 73 248 9.6 12.2 0.00 0.00 0.00 38 1026.0
20260504213358 72 270 4.3 13.9 0.00 0.00 0.00 38 1026.0
20260504212857 72 203 7.8 15.6 0.00 0.00 0.00 38 1025.0
20260504212356 73 203 12.2 14.8 0.00 0.00 0.00 38 1026.0
20260504211856 73 225 11.3 13.0 0.00 0.00 0.00 40 1026.0
20260504211357 72 225 5.2 10.4 0.00 0.00 0.00 41 1026.0
20260504210856 72 225 9.6 10.4 0.00 0.00 0.00 41 1026.0
20260504210356 72 248 10.4 10.4 0.00 0.00 0.00 41 1026.0
20260504205857 72 270 10.4 11.3 0.00 0.00 0.00 41 1026.0
20260504205357 72 225 10.4 12.2 0.00 0.00 0.00 41 1026.0
20260504204856 73 248 7.8 9.6 0.00 0.00 0.00 42 1026.0
20260504204356 73 225 6.1 13.0 0.00 0.00 0.00 42 1026.0
20260504203857 72 225 11.3 13.0 0.00 0.00 0.00 42 1026.0
20260504203356 73 248 8.7 10.4 0.00 0.00 0.00 42 1026.0
20260504202857 73 203 13.0 13.0 0.00 0.00 0.00 42 1026.0
20260504202356 72 225 8.7 13.0 0.00 0.00 0.00 42 1026.0
20260504201857 73 248 10.4 12.2 0.00 0.00 0.00 42 1026.0
20260504201356 73 203 5.2 11.3 0.00 0.00 0.00 43 1026.0
20260504200858 72 203 8.7 13.0 0.00 0.00 0.00 44 1026.0
20260504200356 71 203 7.8 10.4 0.00 0.00 0.00 44 1026.0
20260504195856 72 225 7.0 9.6 0.00 0.00 0.00 44 1026.0
20260504195356 71 225 9.6 13.0 0.00 0.00 0.00 44 1026.0
20260504194857 71 248 6.1 12.2 0.00 0.00 0.00 45 1027.0
20260504194358 71 203 6.1 8.7 0.00 0.00 0.00 45 1027.0
20260504193856 71 225 8.7 11.3 0.00 0.00 0.00 45 1027.0
20260504193357 71 270 13.0 13.0 0.00 0.00 0.00 45 1027.0
20260504192856 71 203 7.8 11.3 0.00 0.00 0.00 45 1027.0
20260504192356 71 248 7.8 13.0 0.00 0.00 0.00 45 1027.0
20260504191856 71 225 10.4 16.5 0.00 0.00 0.00 45 1027.0
20260504191356 71 225 7.0 13.0 0.00 0.00 0.00 45 1027.0
20260504190856 71 225 9.6 14.8 0.00 0.00 0.00 45 1027.0
20260504190356 71 225 11.3 13.0 0.00 0.00 0.00 45 1027.0
20260504185856 71 248 7.0 12.2 0.00 0.00 0.00 45 1027.0
20260504185358 71 203 12.2 13.9 0.00 0.00 0.00 45 1027.0
20260504184856 70 270 6.1 13.0 0.00 0.00 0.00 45 1027.0
20260504184357 71 248 13.0 13.0 0.00 0.00 0.00 45 1027.0
20260504183857 71 203 11.3 13.9 0.00 0.00 0.00 46 1027.0
20260504183357 70 225 15.6 15.6 0.00 0.00 0.00 46 1027.0
20260504182856 70 225 15.6 15.6 0.00 0.00 0.00 46 1027.0
20260504182357 71 248 12.2 13.0 0.00 0.00 0.00 47 1028.0
20260504181857 70 203 6.1 10.4 0.00 0.00 0.00 48 1028.0
20260504181356 69 225 17.4 17.4 0.00 0.00 0.00 48 1028.0
20260504180857 70 203 8.7 12.2 0.00 0.00 0.00 48 1028.0
20260504180356 69 225 9.6 13.0 0.00 0.00 0.00 48 1028.0
20260504175856 69 203 8.7 13.0 0.00 0.00 0.00 48 1028.0
20260504175357 70 203 6.1 10.4 0.00 0.00 0.00 48 1028.0
20260504174857 69 225 7.0 9.6 0.00 0.00 0.00 49 1028.0
20260504174356 68 225 13.9 14.8 0.00 0.00 0.00 49 1028.0
20260504173856 68 248 10.4 14.8 0.00 0.00 0.00 49 1028.0
20260504173358 68 225 9.6 12.2 0.00 0.00 0.00 49 1028.0
20260504172857 67 248 14.8 14.8 0.00 0.00 0.00 50 1028.0
20260504172356 67 248 13.0 16.5 0.00 0.00 0.00 50 1028.0
20260504171857 67 248 12.2 14.8 0.00 0.00 0.00 50 1028.0
20260504171356 67 225 14.8 14.8 0.00 0.00 0.00 50 1028.0
20260504170856 66 248 13.0 15.6 0.00 0.00 0.00 50 1028.0
20260504170356 66 248 12.2 17.4 0.00 0.00 0.00 50 1029.0
20260504160357 65 248 13.0 15.6 0.00 0.00 0.00 51 1029.0
20260504150856 64 248 18.2 18.2 0.00 0.00 0.00 52 1029.0
20260504150358 63 203 11.3 13.0 0.00 0.00 0.00 52 1029.0
20260504140857 62 203 21.7 21.7 0.00 0.00 0.00 52 1029.0
20260504140358 62 203 18.2 18.2 0.00 0.00 0.00 52 1029.0
20260504130359 60 225 8.7 13.0 0.00 0.00 0.00 54 1030.0
20260504110356 52 203 4.3 7.0 0.00 0.00 0.00 62 1030.0
20260504100357 51 225 7.8 7.8 0.00 0.00 0.00 61 1029.0
20260504081857 51 203 2.6 5.2 0.00 0.00 0.00 64 1030.0
20260504081357 51 270 5.2 6.1 0.00 0.00 0.00 64 1030.0
20260504080856 50 203 6.1 7.0 0.00 0.00 0.00 65 1030.0
20260504080356 50 180 4.3 6.1 0.00 0.00 0.00 66 1030.0
20260504070356 48 180 1.7 2.6 0.00 0.00 0.00 77 1031.0
20260504045857 50 248 7.0 9.6 0.00 0.00 0.00 73 1032.0
20260504045356 50 248 8.7 12.2 0.00 0.00 0.00 73 1032.0
20260504044857 49 203 6.1 9.6 0.00 0.00 0.00 73 1032.0
20260504044356 49 270 6.1 7.0 0.00 0.00 0.00 73 1032.0
20260504043857 49 293 5.2 5.2 0.00 0.00 0.00 72 1032.0
20260504043358 49 248 4.3 6.1 0.00 0.00 0.00 72 1032.0
20260504042856 50 270 5.2 6.1 0.00 0.00 0.00 71 1031.0
20260504042356 50 270 6.1 6.1 0.00 0.00 0.00 71 1032.0
20260504041856 50 225 5.2 7.8 0.00 0.00 0.00 70 1032.0